This is the latest recevied weather packets stored in our database for station/object KR4DFQ. If no packets are shown the sender has not sent any weather packets the latest 10 day(s).
| Time | Temp. | Humidity | Pressure | Rain* | Wind** | Luminosity | Snow |
|---|---|---|---|---|---|---|---|
| 1788137601 | 79° F | 87% | 762.7 mmHg | 0 in | - | 0 W/m² | - |
| 1788137296 | 79° F | 87% | 762.8 mmHg | 0 in | - | 0 W/m² | - |
| 1788136992 | 79° F | 87% | 762.7 mmHg | 0 in | - | 0 W/m² | - |
| 1788136688 | 79° F | 88% | 762.8 mmHg | 0 in | - | 0 W/m² | - |
| 1788136384 | 78° F | 88% | 762.8 mmHg | 0 in | - | 0 W/m² | - |
| 1788136083 | 78° F | 89% | 762.7 mmHg | 0 in | - | 0 W/m² | - |
| 1788135782 | 78° F | 88% | 762.7 mmHg | 0 in | - | 0 W/m² | - |
| 1788135478 | 78° F | 87% | 762.7 mmHg | 0 in | - | 0 W/m² | - |
| 1788135173 | 78° F | 88% | 762.7 mmHg | 0 in | - | 0 W/m² | - |
| 1788134871 | 78° F | 89% | 762.6 mmHg | 0 in | - | 0 W/m² | - |
| 1788134571 | 78° F | 90% | 762.5 mmHg | 0 in | - | 0 W/m² | - |
| 1788134269 | 77° F | 90% | 762.4 mmHg | 0 in | - | 0 W/m² | - |
| 1788133964 | 77° F | 90% | 762.4 mmHg | 0 in | - | 0 W/m² | - |
| 1788133659 | 77° F | 90% | 762.7 mmHg | 0 in | - | 1 W/m² | - |
| 1788133355 | 77° F | 89% | 762.4 mmHg | 0 in | - | 1 W/m² | - |
| 1788133051 | 77° F | 89% | 762.5 mmHg | 0 in | - | 3 W/m² | - |
| 1788132746 | 77° F | 90% | 762.7 mmHg | 0 in | - | 5 W/m² | - |
| 1788132441 | 77° F | 91% | 762.7 mmHg | 0 in | - | 6 W/m² | - |
| 1788132137 | 77° F | 90% | 762.5 mmHg | 0 in | - | 8 W/m² | - |
| 1788131834 | 77° F | 91% | 762.3 mmHg | 0 in | - | 11 W/m² | - |
| 1788131533 | 77° F | 91% | 762.4 mmHg | 0 in | - | 15 W/m² | - |
| 1788131228 | 77° F | 91% | 762.4 mmHg | 0 in | - | 21 W/m² | - |
| 1788130923 | 77° F | 92% | 762.5 mmHg | 0 in | - | 24 W/m² | - |
| 1788130617 | 77° F | 92% | 762.6 mmHg | 0 in | - | 32 W/m² | - |
| 1788130312 | 77° F | 92% | 762.7 mmHg | 0 in | - | 34 W/m² | - |
* Rain latest hour (hover to see other rain measurements)
** Current wind speed in m/s (hover to see current wind gust speed)